OMD3TH LBSF-LGAV

Flight info

Callsign OMD3TH
Flight time 1h 0m
Altitude 37000
Route NAPET T214 SIN DCT MAKED DCT SIGFO UM749 ROPOX
Aircraft A320/M-SDE3FGHIRWY/LB1

Departure

Time 2026-05-07 13:40
Airport Sofia Airport (LBSF)

Arrival

Time 2026-05-07 14:40
Airport Athens Eleftherios Venizelos International Airport (LGAV)
Time Latitude Longitude Altitude Speed Heading
2026-05-07 13:12 42.69111 23.41284 1753 ft 0 kts 73°
2026-05-07 13:29 42.69110 23.41279 1753 ft 2 kts 72°
2026-05-07 13:29 42.69103 23.41256 1753 ft 3 kts 59°
2026-05-07 13:29 42.69090 23.41235 1753 ft 3 kts 36°
2026-05-07 13:29 42.69073 23.41223 1753 ft 3 kts
2026-05-07 13:30 42.69053 23.41223 1753 ft 3 kts 347°
2026-05-07 13:30 42.69042 23.41227 1753 ft 0 kts 341°
2026-05-07 13:33 42.69046 23.41226 1753 ft 2 kts 341°
2026-05-07 13:33 42.69075 23.41211 1753 ft 7 kts 340°
2026-05-07 13:33 42.69123 23.41188 1753 ft 8 kts 341°
2026-05-07 13:33 42.69176 23.41164 1753 ft 9 kts 341°
2026-05-07 13:34 42.69238 23.41150 1753 ft 10 kts
2026-05-07 13:34 42.69401 23.41197 1753 ft 15 kts 13°
2026-05-07 13:34 42.69490 23.41163 1753 ft 15 kts 288°
2026-05-07 13:35 42.69501 23.41016 1753 ft 16 kts 274°
2026-05-07 13:35 42.69510 23.40862 1753 ft 17 kts 275°
2026-05-07 13:35 42.69520 23.40701 1753 ft 17 kts 275°
2026-05-07 13:35 42.69531 23.40535 1753 ft 18 kts 275°
2026-05-07 13:36 42.69543 23.40360 1753 ft 19 kts 275°
2026-05-07 13:36 42.69553 23.40179 1753 ft 20 kts 274°
2026-05-07 13:36 42.69564 23.39991 1753 ft 20 kts 274°
2026-05-07 13:36 42.69575 23.39800 1753 ft 20 kts 274°
2026-05-07 13:37 42.69585 23.39655 1753 ft 12 kts 278°
2026-05-07 13:37 42.69638 23.39588 1753 ft 12 kts 12°
2026-05-07 13:37 42.69719 23.39606 1753 ft 9 kts
2026-05-07 13:37 42.69775 23.39650 1753 ft 10 kts 58°
2026-05-07 13:38 42.69769 23.39746 1753 ft 11 kts 102°
2026-05-07 13:38 42.69761 23.39844 1753 ft 4 kts 93°
2026-05-07 13:38 42.69760 23.39846 1753 ft 0 kts 92°
2026-05-07 13:38 42.69760 23.39847 1753 ft 1 kts 92°
2026-05-07 13:39 42.69756 23.39992 1753 ft 40 kts 92°
2026-05-07 13:39 42.69713 23.40626 1753 ft 94 kts 94°
2026-05-07 13:39 42.69647 23.41753 1753 ft 144 kts 94°
2026-05-07 13:39 42.69559 23.43276 1989 ft 166 kts 94°
2026-05-07 13:40 42.69444 23.44833 2672 ft 167 kts 100°
2026-05-07 13:40 42.68821 23.46170 3220 ft 172 kts 145°
2026-05-07 13:40 42.67724 23.46803 3804 ft 178 kts 167°
2026-05-07 13:40 42.66491 23.47274 4259 ft 190 kts 165°
2026-05-07 13:41 42.65178 23.47799 4699 ft 204 kts 165°
2026-05-07 13:41 42.63781 23.48371 5136 ft 221 kts 164°
2026-05-07 13:41 42.62202 23.49023 5605 ft 244 kts 164°
2026-05-07 13:41 42.60558 23.49710 6410 ft 258 kts 164°
2026-05-07 13:42 42.58792 23.50443 7210 ft 271 kts 164°
2026-05-07 13:42 42.56981 23.51192 8224 ft 274 kts 165°
2026-05-07 13:42 42.55121 23.51837 9154 ft 278 kts 174°
2026-05-07 13:42 42.53207 23.51649 10045 ft 281 kts 197°
2026-05-07 13:43 42.51430 23.50467 10709 ft 292 kts 218°
2026-05-07 13:43 42.50047 23.48370 11250 ft 309 kts 238°
2026-05-07 13:43 42.48941 23.45822 11726 ft 326 kts 239°
2026-05-07 13:43 42.47758 23.43110 12205 ft 342 kts 239°
2026-05-07 13:44 42.46529 23.40304 12908 ft 350 kts 239°
2026-05-07 13:44 42.45280 23.37456 13747 ft 353 kts 239°
2026-05-07 13:44 42.44015 23.34589 14546 ft 356 kts 239°
2026-05-07 13:44 42.42737 23.31701 15251 ft 360 kts 239°
2026-05-07 13:45 42.41438 23.28774 15919 ft 365 kts 239°
2026-05-07 13:45 42.40125 23.25823 16592 ft 368 kts 239°
2026-05-07 13:45 42.38797 23.22842 17248 ft 371 kts 239°
2026-05-07 13:45 42.37458 23.19842 17867 ft 375 kts 239°
2026-05-07 13:46 42.36122 23.16847 18457 ft 378 kts 239°
2026-05-07 13:46 42.34761 23.13792 19053 ft 381 kts 239°
2026-05-07 13:46 42.33387 23.10708 19655 ft 384 kts 239°
2026-05-07 13:46 42.32004 23.07614 20254 ft 386 kts 239°
2026-05-07 13:47 42.30605 23.04492 20831 ft 389 kts 239°
2026-05-07 13:47 42.29196 23.01352 21406 ft 392 kts 239°
2026-05-07 13:47 42.27769 22.98208 21968 ft 394 kts 238°
2026-05-07 13:47 42.26291 22.95067 22506 ft 397 kts 238°
2026-05-07 13:48 42.24782 22.91933 23032 ft 400 kts 237°
2026-05-07 13:48 42.23252 22.88775 23549 ft 403 kts 238°
2026-05-07 13:48 42.22237 22.86676 23879 ft 405 kts 238°
2026-05-07 13:48 42.20196 22.82439 24540 ft 408 kts 238°
2026-05-07 13:49 42.18647 22.79213 25039 ft 410 kts 238°
2026-05-07 13:49 42.17098 22.75978 25530 ft 412 kts 238°
2026-05-07 13:49 42.15539 22.72724 26002 ft 413 kts 237°
2026-05-07 13:49 42.13978 22.69469 26443 ft 415 kts 237°
2026-05-07 13:50 42.12940 22.67309 26717 ft 416 kts 237°
2026-05-07 13:50 42.10828 22.62929 27233 ft 417 kts 237°
2026-05-07 13:50 42.09243 22.59642 27602 ft 419 kts 237°
2026-05-07 13:50 42.08191 22.57457 27844 ft 420 kts 237°
2026-05-07 13:51 42.06084 22.53088 28325 ft 421 kts 237°
2026-05-07 13:51 42.05004 22.50854 28585 ft 422 kts 237°
2026-05-07 13:51 42.02881 22.46463 28885 ft 422 kts 237°
2026-05-07 13:51 42.01801 22.44242 28711 ft 419 kts 237°
2026-05-07 13:52 42.00231 22.41021 28479 ft 416 kts 237°
2026-05-07 13:52 41.98544 22.37784 28683 ft 420 kts 229°
2026-05-07 13:52 41.96272 22.35412 28953 ft 422 kts 207°
2026-05-07 13:52 41.93446 22.34352 29203 ft 428 kts 187°
2026-05-07 13:53 41.90464 22.34821 29502 ft 440 kts 165°
2026-05-07 13:53 41.87669 22.36600 29888 ft 448 kts 156°
2026-05-07 13:53 41.84870 22.38421 30136 ft 447 kts 164°
2026-05-07 13:53 41.81870 22.39461 30349 ft 444 kts 176°
2026-05-07 13:54 41.78809 22.40022 30717 ft 442 kts 176°
2026-05-07 13:54 41.75777 22.40564 31236 ft 438 kts 176°
2026-05-07 13:54 41.72769 22.41096 31774 ft 433 kts 176°
2026-05-07 13:54 41.69837 22.41614 32279 ft 430 kts 176°
2026-05-07 13:55 41.66876 22.42134 32759 ft 427 kts 176°
2026-05-07 13:55 41.63939 22.42648 33218 ft 425 kts 176°
2026-05-07 13:55 41.61009 22.43161 33664 ft 423 kts 176°
2026-05-07 13:55 41.58101 22.43676 34104 ft 421 kts 176°
2026-05-07 13:56 41.55200 22.44196 34527 ft 420 kts 176°
2026-05-07 13:56 41.52309 22.44721 34878 ft 420 kts 176°
2026-05-07 13:56 41.49404 22.45243 35170 ft 422 kts 176°
2026-05-07 13:56 41.46491 22.45759 35438 ft 424 kts 176°
2026-05-07 13:57 41.43599 22.46269 35709 ft 425 kts 176°
2026-05-07 13:57 41.40662 22.46785 35988 ft 427 kts 176°
2026-05-07 13:57 41.37710 22.47303 36276 ft 428 kts 176°
2026-05-07 13:57 41.34757 22.47819 36560 ft 429 kts 176°
2026-05-07 13:58 41.31790 22.48339 36842 ft 430 kts 176°
2026-05-07 13:58 41.28820 22.48860 37061 ft 432 kts 176°
2026-05-07 13:58 41.25829 22.49389 37124 ft 433 kts 176°
2026-05-07 13:59 41.19850 22.50440 37123 ft 434 kts 176°
2026-05-07 13:59 41.13909 22.51556 37130 ft 435 kts 172°
2026-05-07 14:00 41.08148 22.54221 37115 ft 443 kts 162°
2026-05-07 14:00 41.02427 22.57300 37127 ft 444 kts 162°
2026-05-07 14:01 40.96692 22.60376 37123 ft 445 kts 162°
2026-05-07 14:01 40.90947 22.63428 37121 ft 445 kts 162°
2026-05-07 14:02 40.85196 22.66489 37117 ft 446 kts 162°
2026-05-07 14:02 40.79472 22.69538 37115 ft 447 kts 162°
2026-05-07 14:03 40.73704 22.72601 37114 ft 447 kts 162°
2026-05-07 14:03 40.67924 22.75658 37115 ft 447 kts 162°
2026-05-07 14:04 40.62147 22.78717 37112 ft 448 kts 162°
2026-05-07 14:04 40.56362 22.81776 37110 ft 448 kts 162°
2026-05-07 14:05 40.50608 22.84809 37111 ft 449 kts 162°
2026-05-07 14:05 40.44809 22.87856 37114 ft 449 kts 162°
2026-05-07 14:06 40.39010 22.90901 37115 ft 449 kts 162°
2026-05-07 14:06 40.33208 22.93943 37112 ft 449 kts 162°
2026-05-07 14:07 40.27399 22.96980 37110 ft 450 kts 162°
2026-05-07 14:07 40.21622 22.99987 37110 ft 450 kts 162°
2026-05-07 14:08 40.15806 23.03020 37108 ft 450 kts 162°
2026-05-07 14:08 40.09985 23.06059 37108 ft 450 kts 162°
2026-05-07 14:09 40.04163 23.09085 37106 ft 451 kts 162°
2026-05-07 14:09 39.98326 23.12104 37105 ft 451 kts 162°
2026-05-07 14:10 39.92473 23.15113 37072 ft 459 kts 163°
2026-05-07 14:10 39.86513 23.18185 37072 ft 461 kts 163°
2026-05-07 14:11 39.80548 23.21272 37082 ft 462 kts 163°
2026-05-07 14:11 39.74586 23.24349 37092 ft 461 kts 163°
2026-05-07 14:12 39.68610 23.27424 37097 ft 461 kts 163°
2026-05-07 14:12 39.62674 23.30460 37095 ft 462 kts 163°
2026-05-07 14:13 39.56688 23.33516 37094 ft 462 kts 163°
2026-05-07 14:13 39.50700 23.36573 37096 ft 463 kts 163°
2026-05-07 14:14 39.44695 23.39641 37093 ft 464 kts 163°
2026-05-07 14:14 39.38691 23.42704 37091 ft 464 kts 163°
2026-05-07 14:15 39.32713 23.45748 37088 ft 465 kts 163°
2026-05-07 14:15 39.26676 23.48803 37085 ft 466 kts 164°
2026-05-07 14:16 39.20627 23.51856 37080 ft 467 kts 164°
2026-05-07 14:16 39.14562 23.54915 37076 ft 468 kts 164°
2026-05-07 14:17 39.08479 23.57970 37071 ft 470 kts 164°
2026-05-07 14:17 39.02379 23.61048 37071 ft 472 kts 164°
2026-05-07 14:18 38.96299 23.64091 37075 ft 472 kts 167°
2026-05-07 14:18 38.89928 23.65748 37127 ft 465 kts 180°
2026-05-07 14:19 38.83520 23.66690 37126 ft 463 kts 180°
2026-05-07 14:19 38.77125 23.67629 37115 ft 463 kts 180°
2026-05-07 14:20 38.70760 23.68567 37101 ft 464 kts 181°
2026-05-07 14:20 38.64338 23.69518 37099 ft 465 kts 181°
2026-05-07 14:21 38.57904 23.70460 37097 ft 466 kts 181°
2026-05-07 14:21 38.51458 23.71390 36786 ft 465 kts 181°
2026-05-07 14:21 38.48239 23.71849 36538 ft 466 kts 181°
2026-05-07 14:22 38.45019 23.72311 35937 ft 464 kts 181°
2026-05-07 14:22 38.41795 23.72776 35043 ft 467 kts 180°
2026-05-07 14:22 38.38616 23.73239 34315 ft 465 kts 180°
2026-05-07 14:22 38.35420 23.73709 33706 ft 460 kts 180°
2026-05-07 14:23 38.32250 23.74177 33113 ft 455 kts 180°
2026-05-07 14:23 38.29120 23.74637 32550 ft 449 kts 179°
2026-05-07 14:23 38.26037 23.75085 31994 ft 444 kts 179°
2026-05-07 14:23 38.22984 23.75525 31415 ft 438 kts 179°
2026-05-07 14:24 38.19957 23.76035 30571 ft 442 kts 173°
2026-05-07 14:24 38.16977 23.77119 29695 ft 448 kts 161°
2026-05-07 14:24 38.14178 23.78877 28871 ft 451 kts 150°
2026-05-07 14:24 38.11622 23.81100 28126 ft 449 kts 148°
2026-05-07 14:25 38.09071 23.83363 27390 ft 446 kts 148°
2026-05-07 14:25 38.06535 23.85600 26701 ft 441 kts 148°
2026-05-07 14:25 38.04034 23.87799 26013 ft 436 kts 148°
2026-05-07 14:25 38.01535 23.89989 25047 ft 437 kts 149°
2026-05-07 14:26 37.99025 23.92182 24080 ft 439 kts 149°
2026-05-07 14:26 37.96521 23.94368 23293 ft 435 kts 149°
2026-05-07 14:26 37.94052 23.96528 22591 ft 429 kts 149°
2026-05-07 14:26 37.91613 23.98663 21885 ft 423 kts 149°
2026-05-07 14:27 37.89211 24.00768 21173 ft 418 kts 149°
2026-05-07 14:27 37.86863 24.02824 20472 ft 413 kts 149°
2026-05-07 14:27 37.84514 24.04875 19772 ft 408 kts 149°
2026-05-07 14:27 37.82187 24.06905 19076 ft 404 kts 149°
2026-05-07 14:28 37.79890 24.08904 18385 ft 399 kts 149°
2026-05-07 14:28 37.77614 24.10885 17694 ft 395 kts 149°
2026-05-07 14:28 37.75367 24.12839 17006 ft 391 kts 148°
2026-05-07 14:28 37.73273 24.15008 16363 ft 390 kts 133°
2026-05-07 14:29 37.71838 24.17887 15735 ft 388 kts 112°
2026-05-07 14:29 37.71255 24.21147 15030 ft 387 kts 92°
2026-05-07 14:29 37.71577 24.24492 14295 ft 384 kts 71°
2026-05-07 14:29 37.72776 24.27463 13581 ft 378 kts 50°
2026-05-07 14:30 37.74671 24.29668 12876 ft 366 kts 29°
2026-05-07 14:30 37.76956 24.30954 11992 ft 356 kts 17°
2026-05-07 14:30 37.79290 24.31911 11357 ft 352 kts 15°
2026-05-07 14:30 37.81614 24.32865 10779 ft 348 kts 17°
2026-05-07 14:31 37.83975 24.33357 9849 ft 344 kts 356°
2026-05-07 14:31 37.86329 24.32899 8851 ft 342 kts 346°
2026-05-07 14:31 37.88642 24.32235 7942 ft 340 kts 345°
2026-05-07 14:31 37.90862 24.31412 7167 ft 333 kts 337°
2026-05-07 14:32 37.93011 24.30581 6906 ft 313 kts 345°
2026-05-07 14:32 37.95062 24.29963 6751 ft 294 kts 345°
2026-05-07 14:32 37.97021 24.29392 6341 ft 286 kts 345°
2026-05-07 14:32 37.98962 24.28827 5780 ft 286 kts 345°
2026-05-07 14:33 38.00831 24.28045 5219 ft 282 kts 328°
2026-05-07 14:33 38.02298 24.26523 5027 ft 264 kts 307°
2026-05-07 14:33 38.03316 24.24676 4895 ft 249 kts 301°
2026-05-07 14:33 38.04254 24.22877 4681 ft 241 kts 301°
2026-05-07 14:34 38.05163 24.21114 4292 ft 238 kts 301°
2026-05-07 14:34 38.06070 24.19347 3841 ft 239 kts 301°
2026-05-07 14:34 38.06956 24.17621 3659 ft 227 kts 301°
2026-05-07 14:34 38.07651 24.15921 3528 ft 213 kts 286°
2026-05-07 14:35 38.07989 24.14149 3345 ft 201 kts 274°
2026-05-07 14:35 38.08000 24.12416 3114 ft 191 kts 261°
2026-05-07 14:35 38.07738 24.10825 3023 ft 178 kts 249°
2026-05-07 14:35 38.07264 24.09410 3011 ft 174 kts 238°
2026-05-07 14:36 38.06585 24.08156 3008 ft 172 kts 225°
2026-05-07 14:36 38.05694 24.07137 2915 ft 173 kts 217°
2026-05-07 14:36 38.04757 24.06195 2688 ft 171 kts 216°
2026-05-07 14:36 38.03817 24.05279 2463 ft 169 kts 216°
2026-05-07 14:37 38.02894 24.04391 2255 ft 164 kts 216°
2026-05-07 14:37 38.01240 24.02805 1832 ft 134 kts 215°
2026-05-07 14:37 38.00500 24.02100 1661 ft 133 kts 215°
2026-05-07 14:38 37.99764 24.01391 1499 ft 132 kts 216°
2026-05-07 14:38 37.99031 24.00696 1312 ft 131 kts 215°
2026-05-07 14:38 37.98302 24.00007 1127 ft 131 kts 215°
2026-05-07 14:38 37.97577 23.99315 959 ft 130 kts 215°
2026-05-07 14:39 37.96853 23.98623 801 ft 131 kts 215°
2026-05-07 14:39 37.96127 23.97927 612 ft 130 kts 214°
2026-05-07 14:39 37.95410 23.97240 454 ft 129 kts 215°
2026-05-07 14:39 37.94698 23.96568 323 ft 125 kts 217°
2026-05-07 14:40 37.94099 23.95983 319 ft 83 kts 217°
2026-05-07 14:40 37.93786 23.95685 319 ft 34 kts 223°
2026-05-07 14:40 37.93625 23.95537 319 ft 27 kts 215°
2026-05-07 14:40 37.93553 23.95453 319 ft 11 kts 231°
2026-05-07 14:41 37.93503 23.95360 319 ft 14 kts 241°
2026-05-07 14:41 37.93463 23.95248 319 ft 12 kts 251°
2026-05-07 14:41 37.93443 23.95168 319 ft 10 kts 240°
2026-05-07 14:41 37.93407 23.95084 319 ft 11 kts 243°
2026-05-07 14:42 37.93357 23.95001 319 ft 13 kts 218°
2026-05-07 14:42 37.93284 23.94932 319 ft 12 kts 216°
2026-05-07 14:42 37.93215 23.94868 319 ft 13 kts 218°
2026-05-07 14:42 37.93140 23.94795 319 ft 14 kts 217°
2026-05-07 14:43 37.93080 23.94740 319 ft 7 kts 218°
2026-05-07 14:43 37.93059 23.94681 319 ft 9 kts 277°
2026-05-07 14:43 37.93084 23.94625 319 ft 6 kts 307°
2026-05-07 14:43 37.93121 23.94592 319 ft 8 kts 353°
2026-05-07 14:44 37.93189 23.94595 319 ft 11 kts
2026-05-07 14:44 37.93261 23.94642 319 ft 13 kts 37°
2026-05-07 14:44 37.93333 23.94712 319 ft 14 kts 37°
2026-05-07 14:44 37.93412 23.94789 319 ft 15 kts 37°
2026-05-07 14:45 37.93499 23.94872 319 ft 16 kts 37°
2026-05-07 14:45 37.93543 23.94911 319 ft 4 kts 12°
2026-05-07 14:45 37.93575 23.94887 319 ft 8 kts 309°
2026-05-07 14:45 37.93604 23.94841 319 ft 1 kts 308°
2026-05-07 14:46 37.93604 23.94840 319 ft 0 kts 308°